Details for EasyJet at LFSB




Go Back


Latest METAR
Local Time

LFSB 252200Z 34003KT CAVOK 17/13 Q1017 NOSIG

26/05/2018, 00:21:05

Description
Results
EasyJet Logo
Number of Pilots based at LFSB
0 Pilots Based here
Number of EasyJet Flights Departed from LFSB
1 Flights Departed
Number of EasyJet Flights Arrived at LFSB
1 Flights Arrived
Number of EasyJet Schedules Departing from LFSB
57 Schedules
Number of EasyJet Schedules Arriving at LFSB
47 Schedules
Number of EasyJet Schedules Departing from LFSB availible today
29 Schedules Today
Number of EasyJet Schedules Arriving at LFSB availible today
24 Schedules Today
Average Landing Rate at LFSB
-169 fpm
EasyJet Average Landing Rate at LFSB
-201 fpm
Total Fuel Purchased at LFSB by EasyJet
4,222.94 kgs / 9,309.89 lbs

Pilots Based at LFSB


Pilot ID
Pilot Name
Pilot Rank
No. of Flights
No. of Flying Hours
There are no pilots assigned to this hub!   Will you be the first?
Content